Location: Fazenda Monte Alegre
(4.8500°S, 38.0333°W)
Time: 15:32:49
(UTC+00:00)

RESURS DK-1 - Pass Details

Date: 24 September 2020
Orbit: 553 x 564 km, 69.9° (Epoch: 19 October)

Event Time Altitude Azimuth Distance (km) Brightness Sun altitude
Rises 20:50:12 0° 168° (SSE) 2,732 5.8 -6.5°
Reaches altitude 10° 20:53:11 10° 145° (SE) 1,835 4.7 -7.2°
Maximum altitude 20:55:37 15° 108° (ESE) 1,521 4.0 -7.8°
Drops below altitude 10° 20:58:03 10° 71° (ENE) 1,831 4.4 -8.4°
Enters shadow 20:58:17 - 69° (ENE) 1,891 4.5 -8.5°
